Flag for Finland Weather past 2 weeks in Kuopio, Finland

Now
72 °F

Passing clouds.


Feels Like: 74 °F
Forecast: 66 / 77 °F
Wind: 7 mph from Southeast

Location: Kuopio Airport

Current Time: Jul 30, 2014 at 5:16:36 PM

Latest Report: Jul 30, 2014 at 4:50 PM


Visibility: N/A

Pressure: 29.89 "Hg

Humidity: 73%

Dew point: 63 °F

Location of KuopioLocation

Historic Weather in Kuopio — Graph

°F

Kuopio temperature yesterday

Maximum temperature yesterday: 77 °F (at 2:50 PM)
Minimum temperature yesterday: 61 °F (at 4:50 PM)
Average temperature yesterday: 69 °F

Past Weeks' High & Low Weather Summary

 TemperatureHumidityPressure
High86 °F (Jul 25, 4:50 PM)100% (Jul 16, 9:20 PM)30.24 "Hg (Jul 16, 9:20 PM)
Low59 °F (Jul 17, 3:50 AM)29% (Jul 25, 2:20 PM)29.74 "Hg (Jul 29, 1:50 PM)
Average71 °F71%30.06 "Hg
* Reported Jul 15 4:20 PM — Jul 30 4:20 PM, Kuopio, Weather by CustomWeather, © 2014

Note: Actual official high and low records may vary slightly from our data, if they occured in-between our weather recording intervals... More about our weather records

Advertising

Kuopio weather history for previous 24 hours

 ConditionsComfort  
Time TempWeatherWind HumidityBarometerVisibility
4:20 PM
Jul 30
73 °FSunny.7 mph69%29.89 "Hg10 mi
3:50 PM72 °FPassing clouds.7 mph69%29.89 "HgN/A
3:20 PM70 °FPassing clouds.7 mph73%29.89 "HgN/A
2:50 PM70 °FPassing clouds.6 mph78%29.89 "HgN/A
2:20 PM68 °FPassing clouds.6 mph83%29.89 "HgN/A
1:50 PM68 °FPassing clouds.6 mph83%29.89 "HgN/A
1:20 PM68 °FPassing clouds.6 mph78%29.92 "HgN/A
12:50 PM66 °FScattered clouds.8 mph83%29.92 "HgN/A
12:20 PM68 °FPartly sunny.8 mph83%29.92 "HgN/A
11:50 AM66 °FPartly sunny.7 mph88%29.92 "HgN/A
11:20 AM64 °FPartly sunny.7 mph88%29.89 "HgN/A
10:50 AM64 °FLow clouds.6 mph88%29.89 "HgN/A
10:20 AM64 °FLow clouds.7 mph88%29.89 "HgN/A
9:50 AM64 °FLow clouds.6 mph88%29.89 "HgN/A
9:20 AM63 °FLow clouds.5 mph94%29.89 "HgN/A
8:50 AM63 °FLow clouds.3 mph94%29.89 "HgN/A
8:20 AM61 °FLow clouds.6 mph94%29.89 "HgN/A
7:50 AM61 °FLow clouds.6 mph94%29.89 "HgN/A
7:20 AM61 °FLow clouds.6 mph94%29.89 "HgN/A
6:50 AM61 °FPartly sunny.7 mph94%29.86 "HgN/A
6:20 AM63 °FPartly sunny.7 mph94%29.86 "HgN/A
5:50 AM61 °FPassing clouds.6 mph94%29.86 "HgN/A
5:20 AM63 °FScattered clouds.7 mph94%29.86 "HgN/A
4:50 AM63 °FPassing clouds.5 mph94%29.86 "HgN/A
4:20 AM63 °FPassing clouds.6 mph94%29.86 "HgN/A
3:50 AM61 °FClear.3 mph100%29.86 "Hg10 mi
3:20 AM63 °FPassing clouds.3 mph94%29.86 "HgN/A
2:50 AM61 °FClear.2 mph88%29.83 "Hg10 mi
2:20 AM63 °FClear.2 mph83%29.83 "Hg10 mi
1:50 AM63 °FClear.1 mph94%29.83 "Hg10 mi
1:20 AM63 °FClear.2 mph94%29.83 "Hg10 mi
12:50 AM64 °FClear.3 mph94%29.83 "Hg10 mi
12:20 AM63 °FClear.3 mph94%29.83 "Hg10 mi
11:50 PM
Jul 29
64 °FClear.3 mph94%29.80 "Hg10 mi
11:20 PM64 °FClear.2 mph88%29.80 "Hg10 mi
10:50 PM64 °FSunny.2 mph83%29.80 "Hg10 mi
10:20 PM66 °FSunny.5 mph83%29.80 "Hg10 mi
9:50 PM66 °FSunny.3 mph83%29.80 "Hg10 mi
9:20 PM66 °FPassing clouds.5 mph83%29.80 "HgN/A
8:50 PM68 °FSunny.6 mph83%29.80 "Hg10 mi
8:20 PM70 °FSunny.3 mph78%29.80 "Hg10 mi
7:50 PM68 °FSunny.5 mph78%29.80 "Hg10 mi
7:20 PM70 °FSunny.3 mph73%29.80 "Hg10 mi
6:50 PM70 °FSunny.2 mph78%29.77 "Hg10 mi
6:20 PM68 °FSunny.2 mph83%29.77 "Hg10 mi
5:50 PM66 °FScattered showers. Scattered clouds.5 mph94%29.77 "HgN/A
5:20 PM63 °FSprinkles. Partly sunny.3 mph100%29.77 "HgN/A
Weather by CustomWeather, © 2014

See weather overviewHow to use our weather pages